This demonstration page uses our WeatherBlox Daily Observations layout. Learn more.

Left ArrowRight Arrow

Hourly Observations for June 21, 2021

Temp ( °F °C ) Dew Point ( °F °C ) Humidity (%) Winds ( mph kmh ) Pressure ( in mb ) Visibility ( mi km ) Precip ( " mm )
12:15 am 00:15 Clear 73 23 70 21 89 89 S 8 13 29.79 1009 10 16 N/A
12:35 am 00:35 Clear 72 22 70 21 94 94 S 7 11 29.78 1008 10 16 N/A
12:55 am 00:55 Clear 72 22 68 20 88 88 S 7 11 29.77 1008 10 16 N/A
1:15 am 01:15 Clear 70 21 68 20 94 94 SSW 6 9 29.77 1008 10 16 N/A
1:35 am 01:35 Clear 70 21 68 20 94 94 SSW 6 9 29.76 1008 10 16 N/A
1:55 am 01:55 Clear 70 21 68 20 94 94 N N/A 29.76 1008 10 16 N/A
2:15 am 02:15 Clear 68 20 68 20 100 100 N N/A 29.76 1008 10 16 N/A
2:35 am 02:35 Clear 68 20 66 19 94 94 SSW 3 6 29.76 1008 10 16 N/A
2:55 am 02:55 Clear 68 20 66 19 94 94 S 3 6 29.75 1008 10 16 N/A
3:15 am 03:15 Clear 66 19 66 19 100 100 S 5 7 29.75 1008 10 16 N/A
3:35 am 03:35 Clear 66 19 64 18 94 94 S 6 9 29.75 1008 10 16 N/A
3:55 am 03:55 Clear 64 18 64 18 100 100 S 5 7 29.74 1007 10 16 N/A
4:15 am 04:15 Clear 64 18 64 18 100 100 S 5 7 29.74 1007 10 16 N/A
4:35 am 04:35 Clear 64 18 64 18 100 100 S 6 9 29.74 1007 10 16 N/A
4:55 am 04:55 Clear 64 18 64 18 100 100 N N/A 29.74 1007 10 16 N/A
5:15 am 05:15 Clear 63 17 63 17 100 100 S 3 6 29.76 1008 10 16 N/A
5:35 am 05:35 Partly Cloudy 63 17 63 17 100 100 N N/A 29.77 1008 10 16 N/A
5:55 am 05:55 Mostly Cloudy 63 17 63 17 100 100 N N/A 29.77 1008 10 16 N/A
6:15 am 06:15 Cloudy 63 17 63 17 100 100 N N/A 29.77 1008 10 16 N/A
6:35 am 06:35 Cloudy with Mist and Fog 63 17 63 17 100 100 N N/A 29.77 1008 4 6 N/A
6:55 am 06:55 Cloudy with Mist and Fog 63 17 63 17 100 100 S 3 6 29.77 1008 1 1 N/A
7:15 am 07:15 Cloudy with Mist and Fog 63 17 63 17 100 100 S 5 7 29.78 1008 1 1 N/A
7:35 am 07:35 Cloudy with Mist and Fog 63 17 63 17 100 100 S 5 7 29.77 1008 3 5 N/A
7:55 am 07:55 Cloudy with Mist and Fog 63 17 63 17 100 100 S 3 6 29.76 1008 3 4 N/A
8:15 am 08:15 Cloudy with Mist and Fog 63 17 63 17 100 100 N N/A 29.77 1008 3 4 N/A
8:35 am 08:35 Cloudy 63 17 63 17 100 100 SSE 5 7 29.76 1008 7 11 N/A
8:55 am 08:55 Cloudy 64 18 63 17 94 94 N N/A 29.76 1008 10 16 N/A
9:15 am 09:15 Cloudy 64 18 64 18 100 100 W 3 6 29.77 1008 10 16 N/A
9:35 am 09:35 Cloudy 68 20 64 18 88 88 N N/A 29.77 1008 10 16 N/A
9:55 am 09:55 Partly Cloudy 70 21 64 18 83 83 SSE 5 7 29.77 1008 10 16 N/A
10:15 am 10:15 Sunny 72 22 64 18 78 78 SSE 5 7 29.76 1008 10 16 N/A
10:35 am 10:35 Sunny 73 23 66 19 78 78 S 6 9 29.75 1007 10 16 N/A
10:55 am 10:55 Sunny 77 25 68 20 74 74 S 7 11 29.73 1007 10 16 N/A
11:15 am 11:15 Sunny 79 26 68 20 70 70 S 10 17 29.72 1007 10 16 N/A
11:55 am 11:55 Sunny 81 27 68 20 66 66 SSW 9 15 29.71 1006 10 16 N/A
12:15 pm 12:15 Sunny 82 28 66 19 58 58 SSW 6 9 29.71 1006 10 16 N/A
12:35 pm 12:35 Partly Cloudy 82 28 66 19 58 58 S 10 17 29.71 1006 10 16 N/A
12:55 pm 12:55 Partly Cloudy 84 29 68 20 58 58 S 10 17 29.70 1006 10 16 N/A
1:15 pm 13:15 Sunny 86 30 66 19 52 52 S 10 17 29.70 1006 10 16 N/A
1:35 pm 13:35 Partly Cloudy 86 30 68 20 55 55 SSW 6 9 29.70 1006 10 16 N/A
1:55 pm 13:55 Partly Cloudy 86 30 68 20 55 55 WSW 8 13 29.68 1005 10 16 N/A
2:15 pm 14:15 Partly Cloudy 86 30 68 20 55 55 SW 10 17 29.67 1005 10 16 N/A
2:35 pm 14:35 Partly Cloudy 88 31 68 20 52 52 SSW 7 11 29.66 1004 10 16 N/A
2:55 pm 14:55 Partly Cloudy 88 31 68 20 52 52 S 13 20 29.66 1004 10 16 N/A
3:15 pm 15:15 Partly Cloudy 90 32 68 20 49 49 SSW 14 22 29.67 1005 10 16 N/A
3:35 pm 15:35 Sunny 90 32 68 20 49 49 S 15 24 29.65 1004 10 16 N/A
3:55 pm 15:55 Sunny 90 32 68 20 49 49 SW 13 20 29.64 1004 10 16 N/A
4:15 pm 16:15 Sunny 88 31 68 20 52 52 SW 9 15 29.63 1003 10 16 N/A
4:35 pm 16:35 Partly Cloudy 88 31 68 20 52 52 SSW 9 15 29.62 1003 10 16 N/A
4:55 pm 16:55 Mostly Cloudy 86 30 70 21 59 59 SW 9 15 29.62 1003 10 16 N/A
5:15 pm 17:15 Cloudy with Heavy Thunderstorms 75 24 68 20 78 78 NW 35 56 29.67 1005 2 3 0.13 3.30
5:35 pm 17:35 Cloudy with Heavy Thunderstorms 68 20 68 20 100 100 WSW 10 17 29.69 1005 3 4 0.41 10.41
5:55 pm 17:55 Partly Cloudy with Light Thunderstorms 68 20 66 19 94 94 WSW 3 6 29.66 1004 10 16 0.45 11.43
6:15 pm 18:15 Sunny with Nearby Thunderstorms 68 20 66 19 94 94 N N/A 29.68 1005 10 16 N/A
6:35 pm 18:35 Sunny 68 20 66 19 94 94 NNW 5 7 29.67 1005 10 16 N/A
6:55 pm 18:55 Partly Cloudy 68 20 68 20 100 100 NNW 3 6 29.67 1005 10 16 N/A
7:15 pm 19:15 Mostly Cloudy 68 20 66 19 94 94 N N/A 29.66 1004 10 16 N/A
7:35 pm 19:35 Mostly Cloudy 70 21 68 20 94 94 N N/A 29.66 1004 10 16 N/A
7:55 pm 19:55 Cloudy 70 21 66 19 88 88 NNW 3 6 29.67 1005 10 16 N/A
8:15 pm 20:15 Cloudy 70 21 66 19 88 88 NE 3 6 29.68 1005 10 16 N/A
8:35 pm 20:35 Cloudy 68 20 68 20 100 100 ENE 7 11 29.68 1005 10 16 N/A
8:55 pm 20:55 Mostly Cloudy 68 20 66 19 94 94 N N/A 29.68 1005 10 16 N/A
9:15 pm 21:15 Cloudy 68 20 66 19 94 94 S 5 7 29.68 1005 10 16 N/A
9:35 pm 21:35 Mostly Cloudy 66 19 66 19 100 100 N N/A 29.69 1006 10 16 N/A
9:55 pm 21:55 Cloudy 68 20 64 18 88 88 NW 18 30 29.74 1007 10 16 N/A
10:15 pm 22:15 Partly Cloudy 68 20 63 17 83 83 N 7 11 29.74 1007 10 16 N/A
10:35 pm 22:35 Clear 66 19 63 17 88 88 N N/A 29.72 1007 10 16 N/A
10:55 pm 22:55 Partly Cloudy 66 19 63 17 88 88 N N/A 29.72 1007 10 16 N/A
11:15 pm 23:15 Partly Cloudy 66 19 63 17 88 88 N N/A 29.73 1007 10 16 N/A
11:35 pm 23:35 Partly Cloudy 64 18 64 18 100 100 N N/A 29.71 1006 10 16 N/A
11:55 pm 23:55 Clear 64 18 63 17 94 94 N N/A 29.71 1006 10 16 N/A

Powered by AerisWeather